DL1WER-13 Weather Reports


time (UTC)temp
C
wind
direction
speed
KPH
gust
KPH
rain 1hr
cm
rain 24hr
cm
rain mn
cm
humidity
%
barometer
mb
20260507005024 8 303 3.2 8.0 0.00 0.13 0.00 89 1036.6
20260507004024 8 237 3.2 8.0 0.00 0.13 0.00 89 1036.8
20260507003024 8 246 3.2 9.7 0.00 0.13 0.00 89 1036.9
20260507002024 8 255 1.6 6.4 0.00 0.13 0.00 89 1036.8
20260507001024 8 222 1.6 3.2 0.00 0.13 0.00 89 1036.7
20260507000024 8 283 3.2 8.0 0.00 0.13 0.00 89 1036.9
20260506235024 8 319 4.8 9.7 0.00 0.13 0.00 89 1037.0
20260506234024 8 337 3.2 8.0 0.00 0.13 0.00 89 1036.9
20260506233024 8 317 3.2 8.0 0.00 0.13 0.00 89 1037.1
20260506232023 8 317 4.8 6.4 0.00 0.13 0.00 88 1037.0
20260506231024 9 328 3.2 8.0 0.00 0.13 0.00 88 1036.8
20260506230024 9 347 3.2 9.7 0.00 0.13 0.00 89 1036.8
20260506225024 9 357 3.2 8.0 0.00 0.13 0.00 89 1037.0
20260506224024 9 310 3.2 6.4 0.00 0.13 0.00 89 1036.8
20260506223024 9 310 1.6 4.8 0.00 0.13 0.00 89 1036.8
20260506222024 9 308 3.2 8.0 0.00 0.13 0.00 89 1037.0
20260506221023 9 354 3.2 6.4 0.00 0.13 0.00 88 1036.6
20260506220028 9 310 4.8 12.9 0.00 0.13 0.00 88 1036.6
20260506215024 9 287 4.8 16.1 0.00 0.13 0.13 88 1036.6
20260506214023 9 305 4.8 11.3 0.00 0.13 0.13 88 1036.2
20260506213025 9 292 3.2 8.0 0.00 0.13 0.13 88 1036.3
20260506212024 9 292 4.8 11.3 0.00 0.13 0.13 88 1036.3
20260506211024 9 308 4.8 12.9 0.00 0.13 0.13 88 1036.4
20260506210024 9 301 6.4 12.9 0.00 0.13 0.13 89 1036.2
20260506205023 9 165 1.6 8.0 0.00 0.13 0.13 89 1036.2
20260506204023 9 312 3.2 8.0 0.00 0.13 0.13 88 1035.9
20260506203025 9 259 3.2 6.4 0.00 0.15 0.13 89 1036.1
20260506202023 9 287 1.6 6.4 0.00 0.15 0.13 88 1036.2
20260506201023 9 1 1.6 6.4 0.00 0.18 0.13 88 1035.9
20260506200024 9 279 3.2 9.7 0.00 0.18 0.13 87 1036.2
20260506195023 10 306 4.8 12.9 0.00 0.18 0.13 87 1035.9
20260506194024 10 295 4.8 9.7 0.00 0.18 0.13 87 1036.0
20260506193024 10 315 3.2 8.0 0.00 0.18 0.13 87 1035.9
20260506192023 10 262 3.2 9.7 0.00 0.18 0.13 86 1036.0
20260506191023 10 296 4.8 12.9 0.00 0.18 0.13 85 1035.5
20260506190024 10 288 3.2 6.4 0.00 0.18 0.13 85 1035.6
20260506185023 10 255 3.2 9.7 0.00 0.18 0.13 84 1035.3
20260506184023 10 262 3.2 9.7 0.00 0.18 0.13 84 1035.4
20260506183024 10 282 4.8 9.7 0.00 0.18 0.13 84 1035.2
20260506182023 10 279 4.8 11.3 0.00 0.18 0.13 84 1035.0
20260506181024 10 329 6.4 19.3 0.00 0.18 0.13 84 1035.0
20260506180024 10 209 4.8 12.9 0.00 0.18 0.13 84 1034.8
20260506175029 10 320 4.8 17.7 0.00 0.18 0.13 84 1034.7
20260506174024 10 301 3.2 6.4 0.00 0.18 0.13 83 1034.6
20260506173024 10 188 4.8 12.9 0.00 0.18 0.13 83 1034.4
20260506172023 10 262 4.8 14.5 0.00 0.18 0.13 84 1034.2
20260506171023 10 285 3.2 6.4 0.00 0.18 0.13 84 1034.1
20260506170024 10 288 4.8 11.3 0.00 0.18 0.13 84 1033.8
20260506165023 11 280 4.8 12.9 0.00 0.18 0.13 83 1033.9
20260506164023 11 286 6.4 16.1 0.00 0.18 0.13 83 1034.1
20260506163023 11 193 8.0 17.7 0.00 0.18 0.13 84 1034.1
20260506162023 11 243 11.3 24.1 0.13 0.18 0.13 84 1033.9
20260506161023 11 353 12.9 19.3 0.13 0.18 0.13 85 1033.9
20260506160024 11 254 6.4 19.3 0.13 0.18 0.13 88 1033.9
20260506155023 11 275 9.7 17.7 0.13 0.18 0.13 88 1033.8
20260506154023 11 213 8.0 17.7 0.13 0.18 0.13 88 1033.8
20260506153024 12 302 6.4 14.5 0.13 0.18 0.13 81 1033.6
20260506152022 13 333 14.5 37.0 0.00 0.05 0.00 68 1033.3
20260506151022 17 293 4.8 11.3 0.00 0.05 0.00 62 1032.3
20260506150023 18 303 3.2 6.4 0.00 0.05 0.00 55 1031.7
20260506145023 17 328 4.8 8.0 0.00 0.05 0.00 60 1031.5
20260506144023 17 356 4.8 8.0 0.00 0.05 0.00 60 1031.5
20260506143023 16 351 6.4 12.9 0.00 0.05 0.00 69 1031.5
20260506142023 16 347 4.8 12.9 0.00 0.05 0.00 71 1031.6
20260506141023 15 290 4.8 12.9 0.00 0.05 0.00 70 1031.5
20260506140023 16 339 3.2 9.7 0.00 0.05 0.00 70 1032.3
20260506135023 16 338 4.8 8.0 0.00 0.05 0.00 66 1032.1
20260506134023 17 340 4.8 8.0 0.00 0.05 0.00 64 1032.1
20260506133023 17 302 3.2 9.7 0.00 0.05 0.00 60 1031.9
20260506132022 17 334 3.2 6.4 0.00 0.05 0.00 53 1032.3
20260506131023 17 199 1.6 4.8 0.00 0.05 0.00 52 1032.0
20260506130023 18 230 1.6 4.8 0.00 0.05 0.00 52 1031.8
20260506125023 18 282 3.2 8.0 0.00 0.05 0.00 51 1031.7
20260506124022 18 187 3.2 6.4 0.00 0.05 0.00 51 1031.7
20260506123023 17 220 4.8 8.0 0.00 0.05 0.00 51 1031.5
20260506122023 17 279 6.4 11.3 0.00 0.10 0.00 51 1031.6
20260506121022 17 294 4.8 9.7 0.00 0.10 0.00 50 1031.4
20260506120023 17 288 4.8 9.7 0.00 0.10 0.00 50 1031.9
20260506115023 18 282 4.8 12.9 0.00 0.10 0.00 47 1031.8
20260506114023 17 274 6.4 9.7 0.00 0.10 0.00 47 1031.8
20260506113023 18 213 3.2 9.7 0.00 0.10 0.00 51 1031.9
20260506112023 18 244 4.8 9.7 0.00 0.10 0.00 52 1032.0
20260506111022 17 236 4.8 8.0 0.00 0.10 0.00 51 1032.1
20260506110023 17 248 4.8 9.7 0.00 0.10 0.00 54 1032.2
20260506105022 17 249 4.8 12.9 0.00 0.10 0.00 55 1032.0
20260506104023 17 237 3.2 8.0 0.00 0.10 0.00 61 1031.9
20260506103022 16 257 3.2 6.4 0.00 0.10 0.00 61 1032.5
20260506102022 16 274 1.6 6.4 0.00 0.10 0.00 60 1032.7
20260506101022 16 221 1.6 4.8 0.00 0.10 0.00 59 1032.7
20260506100023 16 212 3.2 6.4 0.00 0.10 0.00 60 1033.1
20260506095022 16 266 3.2 6.4 0.00 0.10 0.00 59 1032.9
20260506094022 16 283 3.2 6.4 0.00 0.10 0.00 60 1032.9
20260506093023 17 242 3.2 8.0 0.00 0.10 0.00 60 1032.8
20260506092022 17 272 3.2 6.4 0.00 0.10 0.00 61 1033.0
20260506091022 16 251 3.2 6.4 0.00 0.10 0.00 63 1032.9
20260506090023 16 233 3.2 6.4 0.00 0.10 0.00 66 1032.9
20260506085023 15 257 1.6 6.4 0.00 0.10 0.00 68 1033.0
20260506084022 15 315 1.6 3.2 0.00 0.10 0.00 70 1032.9
20260506083023 15 334 1.6 3.2 0.00 0.10 0.00 70 1033.1
20260506082022 15 213 1.6 4.8 0.00 0.10 0.00 71 1033.1
20260506081022 14 245 1.6 3.2 0.00 0.10 0.00 72 1032.9
20260506073023 13 165 1.6 4.8 0.00 0.10 0.00 74 1033.2
20260506072022 13 337 1.6 4.8 0.00 0.10 0.00 77 1033.0
20260506071022 13 316 1.6 3.2 0.00 0.10 0.00 79 1033.2
20260506062022 11 270 1.6 3.2 0.00 0.10 0.00 84 1033.1
20260506061022 11 0 0.0 1.6 0.00 0.10 0.00 86 1033.2
20260506051022 11 311 1.6 4.8 0.00 0.10 0.00 94 1033.4
20260506045022 9 0 0.0 1.6 0.00 0.10 0.00 94 1033.7
20260506044022 8 298 0.0 3.2 0.00 0.10 0.00 93 1033.9
20260506043022 8 292 1.6 3.2 0.00 0.10 0.00 92 1033.7
20260506042022 8 0 0.0 0.0 0.00 0.10 0.00 92 1033.8
20260506041023 8 164 1.6 3.2 0.00 0.10 0.00 92 1033.8
20260506040023 8 199 0.0 3.2 0.00 0.10 0.00 92 1033.8
20260506035022 8 211 0.0 3.2 0.00 0.10 0.00 91 1034.1
20260506034022 8 279 0.0 3.2 0.00 0.10 0.00 91 1034.1
20260506033023 8 292 0.0 3.2 0.00 0.10 0.00 91 1034.1
20260506032022 9 131 0.0 3.2 0.00 0.10 0.00 90 1034.5
20260506031022 9 144 0.0 3.2 0.00 0.10 0.00 90 1034.3
20260506030023 9 172 0.0 3.2 0.00 0.10 0.00 89 1034.1
20260506025022 10 0 0.0 0.0 0.00 0.10 0.00 90 1034.2
20260506024023 10 217 0.0 3.2 0.00 0.10 0.00 90 1034.5
20260506023022 10 230 1.6 6.4 0.00 0.10 0.00 91 1034.2
20260506022022 10 315 1.6 3.2 0.00 0.10 0.00 92 1034.3
20260506021022 10 155 1.6 6.4 0.00 0.10 0.00 94 1034.5
20260506020023 10 87 1.6 3.2 0.00 0.10 0.00 95 1034.9
20260506015022 10 131 1.6 6.4 0.00 0.10 0.00 96 1034.6
20260506014022 9 147 1.6 6.4 0.00 0.10 0.00 96 1034.7
20260506013023 9 159 0.0 3.2 0.00 0.10 0.00 96 1034.4
20260506012023 9 264 0.0 3.2 0.00 0.10 0.00 96 1034.6
20260506011022 10 344 1.6 4.8 0.00 0.10 0.00 96 1034.9
20260506010023 10 0 0.0 1.6 0.00 0.10 0.00 95 1035.0